Time,TemperatureF,DewpointF,PressureIn,WindDirection,WindDirectionDegrees,WindSpeedMPH,WindSpeedGustMPH,Humidity,HourlyPrecipIn,Conditions,Clouds,dailyrainin,SolarRadiationWatts/m^2,SoftwareType,DateUTC
2013-05-06 00:00:00,63.1,35.0,29.88,ENE,78,0.0,4.0,35,0.00,,---,0.00,0.00,VWS V14.01,2013-05-06 04:00:00,
2013-05-06 00:01:00,63.1,35.0,29.88,ENE,78,0.0,0.0,35,0.00,,---,0.00,0.00,VWS V14.01,2013-05-06 04:01:00,
2013-05-06 00:06:00,63.0,35.7,29.88,East,79,0.0,5.0,36,0.00,,---,0.00,0.00,VWS V14.01,2013-05-06 04:06:00,
2013-05-06 00:11:00,62.8,35.5,29.88,ENE,72,0.0,5.0,36,0.00,,---,0.00,0.00,VWS V14.01,2013-05-06 04:11:00,
2013-05-06 00:16:00,62.7,36.8,29.88,ENE,72,0.0,5.0,38,0.00,,---,0.00,0.00,VWS V14.01,2013-05-06 04:16:00,
2013-05-06 00:21:00,62.5,36.6,29.88,ENE,72,0.0,5.0,38,0.00,,---,0.00,0.00,VWS V14.01,2013-05-06 04:21:00,
2013-05-06 00:26:00,62.3,36.4,29.88,ENE,72,0.0,5.0,38,0.00,,---,0.00,0.00,VWS V14.01,2013-05-06 04:26:00,
2013-05-06 00:30:00,62.2,37.6,29.88,ENE,72,1.0,5.0,40,0.00,,---,0.00,0.00,VWS V14.01,2013-05-06 04:30:00,
2013-05-06 00:31:00,62.1,36.9,29.88,ENE,72,0.0,2.0,39,0.00,,---,0.00,0.00,VWS V14.01,2013-05-06 04:31:00,
2013-05-06 00:36:00,62.0,37.4,29.88,ENE,72,0.0,2.0,40,0.00,,---,0.00,0.00,VWS V14.01,2013-05-06 04:36:00,
2013-05-06 00:41:00,61.8,36.6,29.88,ENE,72,0.0,2.0,39,0.00,,---,0.00,0.00,VWS V14.01,2013-05-06 04:41:00,
2013-05-06 00:46:00,61.7,36.5,29.88,ENE,72,0.0,2.0,39,0.00,,---,0.00,0.00,VWS V14.01,2013-05-06 04:46:00,
2013-05-06 00:51:00,61.6,37.7,29.88,ENE,72,0.0,2.0,41,0.00,,---,0.00,0.00,VWS V14.01,2013-05-06 04:51:00,
2013-05-06 00:56:00,61.5,38.8,29.88,ENE,72,0.0,2.0,43,0.00,,---,0.00,0.00,VWS V14.01,2013-05-06 04:56:00,
2013-05-06 01:00:00,61.4,37.5,29.88,ENE,72,0.0,2.0,41,0.00,,---,0.00,0.00,VWS V14.01,2013-05-06 05:00:00,
2013-05-06 01:01:00,61.4,37.5,29.88,ENE,72,0.0,0.0,41,0.00,,---,0.00,0.00,VWS V14.01,2013-05-06 05:01:00,
2013-05-06 01:06:00,61.3,38.0,29.88,ENE,72,0.0,2.0,42,0.00,,---,0.00,0.00,VWS V14.01,2013-05-06 05:06:00,
2013-05-06 01:11:00,61.2,37.3,29.88,ENE,72,0.0,2.0,41,0.00,,---,0.00,0.00,VWS V14.01,2013-05-06 05:11:00,
2013-05-06 01:16:00,61.2,38.5,29.88,ENE,72,0.0,2.0,43,0.00,,---,0.00,0.00,VWS V14.01,2013-05-06 05:16:00,
2013-05-06 01:21:00,61.2,38.0,29.88,ENE,72,0.0,2.0,42,0.00,,---,0.00,0.00,VWS V14.01,2013-05-06 05:21:00,
2013-05-06 01:27:00,61.1,38.5,29.88,ENE,72,0.0,2.0,43,0.00,,---,0.00,0.00,VWS V14.01,2013-05-06 05:27:00,
2013-05-06 01:30:00,61.1,39.0,29.88,ENE,72,0.0,2.0,44,0.00,,---,0.00,0.00,VWS V14.01,2013-05-06 05:30:00,
2013-05-06 01:32:00,61.1,38.5,29.88,ENE,72,0.0,0.0,43,0.00,,---,0.00,0.00,VWS V14.01,2013-05-06 05:32:00,
2013-05-06 01:37:00,61.1,38.5,29.88,ENE,72,0.0,1.0,43,0.00,,---,0.00,0.00,VWS V14.01,2013-05-06 05:37:00,
2013-05-06 01:42:00,61.1,38.5,29.88,ENE,72,0.0,3.0,43,0.00,,---,0.00,0.00,VWS V14.01,2013-05-06 05:42:00,
2013-05-06 01:47:00,61.1,39.6,29.88,ENE,72,0.0,3.0,45,0.00,,---,0.00,0.00,VWS V14.01,2013-05-06 05:47:00,
2013-05-06 01:52:00,60.9,40.0,29.88,ENE,72,0.0,3.0,46,0.00,,---,0.00,0.00,VWS V14.01,2013-05-06 05:52:00,
2013-05-06 01:57:00,60.8,39.9,29.88,ENE,72,0.0,3.0,46,0.00,,---,0.00,0.00,VWS V14.01,2013-05-06 05:57:00,
2013-05-06 02:00:00,60.7,40.4,29.88,ENE,72,0.0,3.0,47,0.00,,---,0.00,0.00,VWS V14.01,2013-05-06 06:00:00,
2013-05-06 02:02:00,60.7,40.9,29.88,ENE,72,0.0,0.0,48,0.00,,---,0.00,0.00,VWS V14.01,2013-05-06 06:02:00,
2013-05-06 02:07:00,60.5,40.2,29.88,ENE,72,0.0,1.0,47,0.00,,---,0.00,0.00,VWS V14.01,2013-05-06 06:07:00,
2013-05-06 02:12:00,60.3,40.0,29.88,ENE,72,0.0,1.0,47,0.00,,---,0.00,0.00,VWS V14.01,2013-05-06 06:12:00,
2013-05-06 02:17:00,60.2,39.9,29.88,ENE,72,0.0,1.0,47,0.00,,---,0.00,0.00,VWS V14.01,2013-05-06 06:17:00,
2013-05-06 02:22:00,60.0,40.3,29.88,ENE,72,0.0,2.0,48,0.00,,---,0.00,0.00,VWS V14.01,2013-05-06 06:22:00,
2013-05-06 02:27:00,59.9,39.6,29.88,ENE,72,0.0,2.0,47,0.00,,---,0.00,0.00,VWS V14.01,2013-05-06 06:27:00,
2013-05-06 02:30:00,59.9,40.2,29.88,ENE,72,1.0,2.0,48,0.00,,---,0.00,0.00,VWS V14.01,2013-05-06 06:30:00,
2013-05-06 02:32:00,59.8,39.5,29.88,ENE,72,0.0,3.0,47,0.00,,---,0.00,0.00,VWS V14.01,2013-05-06 06:32:00,
2013-05-06 02:37:00,59.8,40.1,29.88,ENE,72,0.0,3.0,48,0.00,,---,0.00,0.00,VWS V14.01,2013-05-06 06:37:00,
2013-05-06 02:42:00,59.8,40.1,29.88,ENE,72,0.0,3.0,48,0.00,,---,0.00,0.00,VWS V14.01,2013-05-06 06:42:00,
2013-05-06 02:47:00,59.8,40.1,29.88,ENE,72,1.0,3.0,48,0.00,,---,0.00,0.00,VWS V14.01,2013-05-06 06:47:00,
2013-05-06 02:52:00,59.7,40.5,29.88,ENE,72,0.0,3.0,49,0.00,,---,0.00,0.00,VWS V14.01,2013-05-06 06:52:00,
2013-05-06 02:57:00,59.7,40.5,29.87,East,80,0.0,3.0,49,0.00,,---,0.00,0.00,VWS V14.01,2013-05-06 06:57:00,
2013-05-06 03:00:00,59.7,41.0,29.87,East,80,0.0,3.0,50,0.00,,---,0.00,0.00,VWS V14.01,2013-05-06 07:00:00,
2013-05-06 03:02:00,59.7,41.6,29.87,East,80,0.0,2.0,51,0.00,,---,0.00,0.00,VWS V14.01,2013-05-06 07:02:00,
2013-05-06 03:07:00,59.6,41.5,29.87,ENE,73,0.0,4.0,51,0.00,,---,0.00,0.00,VWS V14.01,2013-05-06 07:07:00,
2013-05-06 03:12:00,59.5,41.9,29.87,ENE,72,0.0,4.0,52,0.00,,---,0.00,0.00,VWS V14.01,2013-05-06 07:12:00,
2013-05-06 03:17:00,59.4,41.8,29.87,NE,56,0.0,4.0,52,0.00,,---,0.00,0.00,VWS V14.01,2013-05-06 07:17:00,
2013-05-06 03:22:00,59.3,42.2,29.87,NE,56,2.0,4.0,53,0.00,,---,0.00,0.00,VWS V14.01,2013-05-06 07:22:00,
2013-05-06 03:28:00,59.3,42.2,29.87,NE,56,0.0,4.0,53,0.00,,---,0.00,0.00,VWS V14.01,2013-05-06 07:28:00,
2013-05-06 03:30:00,59.2,42.1,29.87,ENE,63,4.0,4.0,53,0.00,,---,0.00,0.00,VWS V14.01,2013-05-06 07:30:00,
2013-05-06 03:33:00,59.2,42.1,29.87,ENE,69,0.0,4.0,53,0.00,,---,0.00,0.00,VWS V14.01,2013-05-06 07:33:00,
2013-05-06 03:38:00,59.1,42.0,29.87,East,91,2.0,4.0,53,0.00,,---,0.00,0.00,VWS V14.01,2013-05-06 07:38:00,
2013-05-06 03:43:00,59.0,41.9,29.87,East,81,4.0,5.0,53,0.00,,---,0.00,0.00,VWS V14.01,2013-05-06 07:43:00,
2013-05-06 03:48:00,59.0,41.9,29.87,ENE,77,0.0,5.0,53,0.00,,---,0.00,0.00,VWS V14.01,2013-05-06 07:48:00,
2013-05-06 03:53:00,59.0,42.4,29.87,ENE,76,4.0,6.0,54,0.00,,---,0.00,0.00,VWS V14.01,2013-05-06 07:53:00,
2013-05-06 03:58:00,58.9,42.3,29.88,ENE,72,0.0,6.0,54,0.00,,---,0.00,0.00,VWS V14.01,2013-05-06 07:58:00,
2013-05-06 04:00:00,58.9,42.3,29.87,ENE,76,1.0,6.0,54,0.00,,---,0.00,0.00,VWS V14.01,2013-05-06 08:00:00,
2013-05-06 04:03:00,58.9,42.3,29.88,ENE,65,2.0,4.0,54,0.00,,---,0.00,0.00,VWS V14.01,2013-05-06 08:03:00,
2013-05-06 04:08:00,58.8,42.7,29.87,NE,56,1.0,4.0,55,0.00,,---,0.00,0.00,VWS V14.01,2013-05-06 08:08:00,
2013-05-06 04:13:00,58.6,42.5,29.87,ENE,77,0.0,4.0,55,0.00,,---,0.00,0.00,VWS V14.01,2013-05-06 08:13:00,
2013-05-06 04:18:00,58.5,42.4,29.87,ENE,73,0.0,5.0,55,0.00,,---,0.00,0.00,VWS V14.01,2013-05-06 08:18:00,
2013-05-06 04:23:00,58.5,42.9,29.87,ENE,78,0.0,5.0,56,0.00,,---,0.00,0.00,VWS V14.01,2013-05-06 08:23:00,
2013-05-06 04:28:00,58.4,42.8,29.87,NE,52,3.0,5.0,56,0.00,,---,0.00,0.00,VWS V14.01,2013-05-06 08:28:00,
2013-05-06 04:30:00,58.4,42.8,29.88,NE,56,1.0,5.0,56,0.00,,---,0.00,0.00,VWS V14.01,2013-05-06 08:30:00,
2013-05-06 04:33:00,58.3,42.7,29.88,NE,56,1.0,1.0,56,0.00,,---,0.00,0.00,VWS V14.01,2013-05-06 08:33:00,
2013-05-06 04:38:00,58.2,43.1,29.88,NE,56,1.0,2.0,57,0.00,,---,0.00,0.00,VWS V14.01,2013-05-06 08:38:00,
2013-05-06 04:43:00,58.1,43.4,29.87,East,79,0.0,7.0,58,0.00,,---,0.00,0.00,VWS V14.01,2013-05-06 08:43:00,
2013-05-06 04:48:00,58.0,43.3,29.88,ESE,104,0.0,7.0,58,0.00,,---,0.00,0.00,VWS V14.01,2013-05-06 08:48:00,
2013-05-06 04:53:00,57.9,43.2,29.88,ENE,77,0.0,7.0,58,0.00,,---,0.00,0.00,VWS V14.01,2013-05-06 08:53:00,
2013-05-06 04:58:00,57.9,43.2,29.88,ENE,76,1.0,7.0,58,0.00,,---,0.00,0.00,VWS V14.01,2013-05-06 08:58:00,
2013-05-06 05:00:00,57.8,43.1,29.88,East,87,0.0,7.0,58,0.00,,---,0.00,0.00,VWS V14.01,2013-05-06 09:00:00,
2013-05-06 05:03:00,57.8,43.1,29.88,NE,38,1.0,6.0,58,0.00,,---,0.00,0.00,VWS V14.01,2013-05-06 09:03:00,
2013-05-06 05:08:00,57.7,43.5,29.88,East,87,0.0,6.0,59,0.00,,---,0.00,0.00,VWS V14.01,2013-05-06 09:08:00,
2013-05-06 05:13:00,57.7,43.5,29.88,ENE,72,1.0,6.0,59,0.00,,---,0.00,0.00,VWS V14.01,2013-05-06 09:13:00,
2013-05-06 05:18:00,57.7,43.5,29.88,East,100,1.0,6.0,59,0.00,,---,0.00,0.00,VWS V14.01,2013-05-06 09:18:00,
2013-05-06 05:23:00,57.6,43.4,29.88,ENE,66,1.0,6.0,59,0.00,,---,0.00,0.00,VWS V14.01,2013-05-06 09:23:00,
2013-05-06 05:28:00,57.5,43.3,29.88,ENE,67,1.0,6.0,59,0.00,,---,0.00,0.00,VWS V14.01,2013-05-06 09:28:00,
2013-05-06 05:30:00,57.5,43.7,29.88,ENE,67,0.0,6.0,60,0.00,,---,0.00,0.00,VWS V14.01,2013-05-06 09:30:00,
2013-05-06 05:33:00,57.5,43.7,29.88,ENE,61,1.0,4.0,60,0.00,,---,0.00,0.00,VWS V14.01,2013-05-06 09:33:00,
2013-05-06 05:38:00,57.3,43.5,29.88,ENE,74,0.0,5.0,60,0.00,,---,0.00,0.00,VWS V14.01,2013-05-06 09:38:00,
2013-05-06 05:43:00,57.3,43.5,29.88,ENE,78,1.0,5.0,60,0.00,,---,0.00,0.00,VWS V14.01,2013-05-06 09:43:00,
2013-05-06 05:48:00,57.2,43.9,29.88,ENE,64,0.0,5.0,61,0.00,,---,0.00,0.00,VWS V14.01,2013-05-06 09:48:00,
2013-05-06 05:54:00,57.1,43.8,29.88,ENE,65,1.0,5.0,61,0.00,,---,0.00,0.00,VWS V14.01,2013-05-06 09:54:00,
2013-05-06 05:59:00,57.0,43.7,29.88,ENE,67,0.0,7.0,61,0.00,,---,0.00,0.00,VWS V14.01,2013-05-06 09:59:00,
2013-05-06 06:00:00,57.0,43.7,29.88,ENE,67,0.0,7.0,61,0.00,,---,0.00,0.00,VWS V14.01,2013-05-06 10:00:00,
2013-05-06 06:04:00,56.9,43.6,29.88,East,80,7.0,7.0,61,0.00,,---,0.00,0.00,VWS V14.01,2013-05-06 10:04:00,
2013-05-06 06:09:00,56.9,44.0,29.88,NNE,26,3.0,10.0,62,0.00,,---,0.00,0.00,VWS V14.01,2013-05-06 10:09:00,
2013-05-06 06:14:00,56.8,43.9,29.88,East,94,5.0,10.0,62,0.00,,---,0.00,0.00,VWS V14.01,2013-05-06 10:14:00,
2013-05-06 06:19:00,56.8,43.9,29.89,East,82,3.0,10.0,62,0.00,,---,0.00,0.00,VWS V14.01,2013-05-06 10:19:00,
2013-05-06 06:24:00,56.7,43.8,29.89,ENE,68,6.0,10.0,62,0.00,,---,0.00,0.00,VWS V14.01,2013-05-06 10:24:00,
2013-05-06 06:29:00,56.7,43.8,29.89,ENE,77,1.0,10.0,62,0.00,,---,0.00,0.00,VWS V14.01,2013-05-06 10:29:00,
2013-05-06 06:30:00,56.6,44.2,29.89,ENE,77,0.0,10.0,63,0.00,,---,0.00,0.00,VWS V14.01,2013-05-06 10:30:00,
2013-05-06 06:34:00,56.6,44.2,29.90,NE,54,1.0,4.0,63,0.00,,---,0.00,5.00,VWS V14.01,2013-05-06 10:34:00,
2013-05-06 06:39:00,56.5,44.1,29.90,ENE,76,1.0,4.0,63,0.00,,---,0.00,7.00,VWS V14.01,2013-05-06 10:39:00,
2013-05-06 06:44:00,56.4,44.0,29.90,East,84,0.0,5.0,63,0.00,,---,0.00,11.00,VWS V14.01,2013-05-06 10:44:00,
2013-05-06 06:49:00,56.4,44.0,29.90,ENE,78,1.0,5.0,63,0.00,,---,0.00,12.00,VWS V14.01,2013-05-06 10:49:00,
2013-05-06 06:54:00,56.4,44.0,29.90,ENE,75,1.0,5.0,63,0.00,,---,0.00,14.00,VWS V14.01,2013-05-06 10:54:00,
2013-05-06 06:59:00,56.3,43.9,29.90,NE,40,3.0,5.0,63,0.00,,---,0.00,16.00,VWS V14.01,2013-05-06 10:59:00,
2013-05-06 07:00:00,56.3,43.9,29.90,NE,40,1.0,5.0,63,0.00,,---,0.00,16.00,VWS V14.01,2013-05-06 11:00:00,
2013-05-06 07:04:00,56.3,44.3,29.91,ENE,76,1.0,6.0,64,0.00,,---,0.00,18.00,VWS V14.01,2013-05-06 11:04:00,
2013-05-06 07:09:00,56.3,44.3,29.91,ENE,76,0.0,6.0,64,0.00,,---,0.00,25.00,VWS V14.01,2013-05-06 11:09:00,
2013-05-06 07:14:00,56.2,44.2,29.91,ENE,57,0.0,6.0,64,0.00,,---,0.00,33.00,VWS V14.01,2013-05-06 11:14:00,
2013-05-06 07:19:00,56.2,44.6,29.91,ENE,76,3.0,6.0,65,0.00,,---,0.00,35.00,VWS V14.01,2013-05-06 11:19:00,
2013-05-06 07:24:00,56.1,44.5,29.91,NE,40,0.0,6.0,65,0.00,,---,0.00,40.00,VWS V14.01,2013-05-06 11:24:00,
2013-05-06 07:29:00,56.1,44.5,29.91,ENE,71,1.0,6.0,65,0.00,,---,0.00,46.00,VWS V14.01,2013-05-06 11:29:00,
2013-05-06 07:30:00,56.1,44.5,29.91,NE,37,3.0,6.0,65,0.00,,---,0.00,47.00,VWS V14.01,2013-05-06 11:30:00,
2013-05-06 07:34:00,56.1,44.5,29.91,NE,48,0.0,6.0,65,0.00,,---,0.00,51.00,VWS V14.01,2013-05-06 11:34:00,
2013-05-06 07:39:00,56.1,44.5,29.91,ENE,78,3.0,6.0,65,0.00,,---,0.00,53.00,VWS V14.01,2013-05-06 11:39:00,
2013-05-06 07:44:00,56.1,44.9,29.92,NE,39,1.0,6.0,66,0.00,,---,0.00,56.00,VWS V14.01,2013-05-06 11:44:00,
2013-05-06 07:49:00,56.1,44.9,29.91,ENE,69,4.0,6.0,66,0.00,,---,0.00,60.00,VWS V14.01,2013-05-06 11:49:00,
2013-05-06 07:54:00,56.1,44.9,29.91,ENE,67,1.0,6.0,66,0.00,,---,0.00,63.00,VWS V14.01,2013-05-06 11:54:00,
2013-05-06 07:59:00,56.1,45.3,29.91,ENE,76,0.0,6.0,67,0.00,,---,0.00,72.00,VWS V14.01,2013-05-06 11:59:00,
2013-05-06 08:00:00,56.1,44.9,29.91,ENE,76,1.0,6.0,66,0.00,,---,0.00,72.00,VWS V14.01,2013-05-06 12:00:00,
2013-05-06 08:04:00,56.1,44.9,29.92,ENE,71,2.0,5.0,66,0.00,,---,0.00,83.00,VWS V14.01,2013-05-06 12:04:00,
2013-05-06 08:09:00,56.2,45.0,29.92,ENE,76,1.0,5.0,66,0.00,,---,0.00,91.00,VWS V14.01,2013-05-06 12:09:00,
2013-05-06 08:14:00,56.2,45.4,29.92,ESE,121,4.0,5.0,67,0.00,,---,0.00,98.00,VWS V14.01,2013-05-06 12:14:00,
2013-05-06 08:19:00,56.3,45.5,29.92,NE,46,3.0,5.0,67,0.00,,---,0.00,105.00,VWS V14.01,2013-05-06 12:19:00,
2013-05-06 08:32:00,56.4,45.6,29.92,ENE,63,1.0,1.0,67,0.00,,---,0.00,88.00,VWS V14.01,2013-05-06 12:32:00,
2013-05-06 08:37:00,56.4,45.6,29.92,ENE,57,0.0,4.0,67,0.00,,---,0.00,84.00,VWS V14.01,2013-05-06 12:37:00,
2013-05-06 08:42:00,56.5,45.7,29.92,ENE,78,3.0,4.0,67,0.00,,---,0.00,97.00,VWS V14.01,2013-05-06 12:42:00,
2013-05-06 08:47:00,56.6,45.8,29.91,NE,50,0.0,4.0,67,0.00,,---,0.00,113.00,VWS V14.01,2013-05-06 12:47:00,
2013-05-06 08:52:00,56.6,45.8,29.92,ENE,71,0.0,4.0,67,0.00,,---,0.00,135.00,VWS V14.01,2013-05-06 12:52:00,
2013-05-06 08:57:00,56.7,45.9,29.91,East,80,0.0,5.0,67,0.00,,---,0.00,144.00,VWS V14.01,2013-05-06 12:57:00,
2013-05-06 09:00:00,56.8,46.0,29.91,NE,55,3.0,6.0,67,0.00,,---,0.00,142.00,VWS V14.01,2013-05-06 13:00:00,
2013-05-06 09:02:00,56.8,46.4,29.92,NE,55,1.0,3.0,68,0.00,,---,0.00,141.00,VWS V14.01,2013-05-06 13:02:00,
2013-05-06 09:07:00,57.0,46.6,29.91,ENE,73,1.0,3.0,68,0.00,,---,0.00,162.00,VWS V14.01,2013-05-06 13:07:00,
2013-05-06 09:12:00,57.1,46.7,29.91,East,83,0.0,5.0,68,0.00,,---,0.00,209.00,VWS V14.01,2013-05-06 13:12:00,
2013-05-06 09:17:00,57.3,46.8,29.91,ENE,77,2.0,6.0,68,0.00,,---,0.00,227.00,VWS V14.01,2013-05-06 13:17:00,
2013-05-06 09:22:00,57.3,46.5,29.91,ENE,77,3.0,11.0,67,0.00,,---,0.00,206.00,VWS V14.01,2013-05-06 13:22:00,
2013-05-06 09:27:00,57.3,46.5,29.91,ENE,65,1.0,11.0,67,0.00,,---,0.00,195.00,VWS V14.01,2013-05-06 13:27:00,
2013-05-06 09:30:00,57.3,46.5,29.91,NNE,16,3.0,11.0,67,0.00,,---,0.00,192.00,VWS V14.01,2013-05-06 13:30:00,
2013-05-06 09:32:00,57.4,46.9,29.91,NE,47,10.0,10.0,68,0.00,,---,0.00,186.00,VWS V14.01,2013-05-06 13:32:00,
2013-05-06 09:37:00,57.5,46.6,29.91,ENE,59,2.0,10.0,67,0.00,,---,0.00,169.00,VWS V14.01,2013-05-06 13:37:00,
2013-05-06 09:42:00,57.6,47.1,29.91,ENE,65,1.0,10.0,68,0.00,,---,0.00,160.00,VWS V14.01,2013-05-06 13:42:00,
2013-05-06 09:47:00,57.6,47.1,29.91,ENE,69,3.0,10.0,68,0.00,,---,0.00,151.00,VWS V14.01,2013-05-06 13:47:00,
2013-05-06 09:52:00,57.7,47.2,29.91,ENE,65,1.0,10.0,68,0.00,,---,0.00,146.00,VWS V14.01,2013-05-06 13:52:00,
2013-05-06 09:57:00,57.7,46.8,29.91,ENE,78,3.0,10.0,67,0.00,,---,0.00,135.00,VWS V14.01,2013-05-06 13:57:00,
2013-05-06 10:00:00,57.7,46.8,29.91,ENE,78,6.0,10.0,67,0.00,,---,0.00,134.00,VWS V14.01,2013-05-06 14:00:00,
2013-05-06 10:03:00,57.7,47.2,29.92,East,84,5.0,7.0,68,0.00,,---,0.00,141.00,VWS V14.01,2013-05-06 14:03:00,
2013-05-06 10:08:00,57.7,47.2,29.92,East,90,10.0,12.0,68,0.00,,---,0.00,169.00,VWS V14.01,2013-05-06 14:08:00,
2013-05-06 10:13:00,57.7,47.2,29.92,NE,43,2.0,12.0,68,0.00,,---,0.00,209.00,VWS V14.01,2013-05-06 14:13:00,
2013-05-06 10:18:00,57.7,47.2,29.92,ESE,108,3.0,12.0,68,0.00,,---,0.00,251.00,VWS V14.01,2013-05-06 14:18:00,
2013-05-06 10:23:00,57.9,47.4,29.92,East,86,4.0,12.0,68,0.00,,---,0.00,304.00,VWS V14.01,2013-05-06 14:23:00,
2013-05-06 10:28:00,58.2,47.7,29.92,NE,37,4.0,12.0,68,0.00,,---,0.00,380.00,VWS V14.01,2013-05-06 14:28:00,
2013-05-06 10:30:00,58.3,47.8,29.92,East,80,4.0,12.0,68,0.00,,---,0.00,427.00,VWS V14.01,2013-05-06 14:30:00,
2013-05-06 10:33:00,58.5,48.0,29.92,ENE,78,1.0,10.0,68,0.00,,---,0.00,473.00,VWS V14.01,2013-05-06 14:33:00,
2013-05-06 10:38:00,59.0,49.2,29.92,ENE,74,3.0,10.0,70,0.00,,---,0.00,510.00,VWS V14.01,2013-05-06 14:38:00,
2013-05-06 10:43:00,59.6,49.0,29.92,NNE,23,10.0,10.0,68,0.00,,---,0.00,722.00,VWS V14.01,2013-05-06 14:43:00,
2013-05-06 10:48:00,60.3,49.3,29.91,East,94,2.0,10.0,67,0.00,,---,0.00,854.00,VWS V14.01,2013-05-06 14:48:00,
2013-05-06 10:53:00,60.9,49.1,29.91,NNE,29,6.0,10.0,65,0.00,,---,0.00,842.00,VWS V14.01,2013-05-06 14:53:00,
2013-05-06 10:58:00,61.4,49.5,29.91,East,79,4.0,10.0,65,0.00,,---,0.00,838.00,VWS V14.01,2013-05-06 14:58:00,
2013-05-06 11:00:00,61.6,49.3,29.91,NE,47,7.0,12.0,64,0.00,,---,0.00,838.00,VWS V14.01,2013-05-06 15:00:00,
2013-05-06 11:03:00,61.8,49.9,29.91,ENE,67,3.0,7.0,65,0.00,,---,0.00,856.00,VWS V14.01,2013-05-06 15:03:00,
2013-05-06 11:08:00,62.3,50.0,29.91,NNE,12,4.0,10.0,64,0.00,,---,0.00,882.00,VWS V14.01,2013-05-06 15:08:00,
2013-05-06 11:13:00,62.7,50.8,29.91,ENE,78,0.0,10.0,65,0.00,,---,0.00,548.00,VWS V14.01,2013-05-06 15:13:00,
2013-05-06 11:18:00,63.2,50.8,29.91,NE,44,4.0,10.0,64,0.00,,---,0.00,666.00,VWS V14.01,2013-05-06 15:18:00,
2013-05-06 11:23:00,63.4,50.2,29.91,ENE,69,5.0,13.0,62,0.00,,---,0.00,612.00,VWS V14.01,2013-05-06 15:23:00,
2013-05-06 11:28:00,63.6,50.4,29.91,ENE,74,7.0,13.0,62,0.00,,---,0.00,568.00,VWS V14.01,2013-05-06 15:28:00,
2013-05-06 11:30:00,63.6,50.8,29.91,NNE,30,5.0,13.0,63,0.00,,---,0.00,587.00,VWS V14.01,2013-05-06 15:30:00,
2013-05-06 11:33:00,63.9,51.1,29.91,NNE,16,5.0,5.0,63,0.00,,---,0.00,545.00,VWS V14.01,2013-05-06 15:33:00,
2013-05-06 11:38:00,64.3,51.5,29.91,NE,54,2.0,12.0,63,0.00,,---,0.00,633.00,VWS V14.01,2013-05-06 15:38:00,
2013-05-06 11:43:00,64.7,51.8,29.91,ENE,74,3.0,12.0,63,0.00,,---,0.00,911.00,VWS V14.01,2013-05-06 15:43:00,
2013-05-06 11:48:00,65.2,51.4,29.91,NE,39,6.0,12.0,61,0.00,,---,0.00,830.00,VWS V14.01,2013-05-06 15:48:00,
2013-05-06 11:53:00,65.2,51.0,29.91,NNE,30,5.0,12.0,60,0.00,,---,0.00,953.00,VWS V14.01,2013-05-06 15:53:00,
2013-05-06 11:58:00,65.6,51.8,29.91,ENE,67,4.0,13.0,61,0.00,,---,0.00,981.00,VWS V14.01,2013-05-06 15:58:00,
2013-05-06 12:00:00,65.7,51.5,29.91,North,9,6.0,13.0,60,0.00,,---,0.00,991.00,VWS V14.01,2013-05-06 16:00:00,
2013-05-06 12:03:00,65.9,52.1,29.91,ENE,76,1.0,13.0,61,0.00,,---,0.00,1005.00,VWS V14.01,2013-05-06 16:03:00,
2013-05-06 12:08:00,66.3,51.6,29.91,NNE,32,8.0,13.0,59,0.00,,---,0.00,1071.00,VWS V14.01,2013-05-06 16:08:00,
2013-05-06 12:13:00,66.3,51.6,29.91,NNE,29,5.0,14.0,59,0.00,,---,0.00,584.00,VWS V14.01,2013-05-06 16:13:00,
2013-05-06 12:18:00,66.5,52.7,29.91,ENE,71,4.0,14.0,61,0.00,,---,0.00,603.00,VWS V14.01,2013-05-06 16:18:00,
2013-05-06 12:23:00,66.8,53.4,29.91,East,87,5.0,14.0,62,0.00,,---,0.00,482.00,VWS V14.01,2013-05-06 16:23:00,
2013-05-06 12:28:00,67.0,52.2,29.90,East,98,2.0,14.0,59,0.00,,---,0.00,997.00,VWS V14.01,2013-05-06 16:28:00,
2013-05-06 12:30:00,67.1,53.2,29.90,East,98,0.0,14.0,61,0.00,,---,0.00,997.00,VWS V14.01,2013-05-06 16:30:00,
2013-05-06 12:33:00,67.3,53.0,29.90,East,82,4.0,5.0,60,0.00,,---,0.00,997.00,VWS V14.01,2013-05-06 16:33:00,
2013-05-06 12:38:00,67.7,52.9,29.90,ENE,77,3.0,6.0,59,0.00,,---,0.00,1056.00,VWS V14.01,2013-05-06 16:38:00,
2013-05-06 12:43:00,67.7,52.4,29.90,ENE,69,6.0,10.0,58,0.00,,---,0.00,517.00,VWS V14.01,2013-05-06 16:43:00,
2013-05-06 12:48:00,67.8,53.9,29.90,East,83,4.0,10.0,61,0.00,,---,0.00,1116.00,VWS V14.01,2013-05-06 16:48:00,
2013-05-06 12:53:00,68.4,54.0,29.90,ENE,68,1.0,10.0,60,0.00,,---,0.00,461.00,VWS V14.01,2013-05-06 16:53:00,
2013-05-06 12:59:00,68.6,53.7,29.89,East,80,1.0,10.0,59,0.00,,---,0.00,991.00,VWS V14.01,2013-05-06 16:59:00,
2013-05-06 13:00:00,68.6,53.2,29.89,East,86,5.0,10.0,58,0.00,,---,0.00,956.00,VWS V14.01,2013-05-06 17:00:00,
2013-05-06 13:03:00,68.5,53.6,29.89,East,83,2.0,10.0,59,0.00,,---,0.00,584.00,VWS V14.01,2013-05-06 17:03:00,
2013-05-06 13:09:00,68.3,53.9,29.89,East,80,4.0,12.0,60,0.00,,---,0.00,865.00,VWS V14.01,2013-05-06 17:09:00,
2013-05-06 13:14:00,68.4,53.1,29.89,ENE,76,6.0,12.0,58,0.00,,---,0.00,276.00,VWS V14.01,2013-05-06 17:14:00,
2013-05-06 13:19:00,68.1,52.8,29.89,ENE,58,1.0,12.0,58,0.00,,---,0.00,445.00,VWS V14.01,2013-05-06 17:19:00,
2013-05-06 13:24:00,68.2,54.2,29.89,NNE,31,6.0,12.0,61,0.00,,---,0.00,478.00,VWS V14.01,2013-05-06 17:24:00,
2013-05-06 13:29:00,68.3,53.9,29.89,NNE,21,5.0,12.0,60,0.00,,---,0.00,608.00,VWS V14.01,2013-05-06 17:29:00,
2013-05-06 13:30:00,68.3,53.4,29.89,ESE,105,2.0,12.0,59,0.00,,---,0.00,615.00,VWS V14.01,2013-05-06 17:30:00,
2013-05-06 13:34:00,68.5,53.6,29.88,ENE,73,5.0,7.0,59,0.00,,---,0.00,631.00,VWS V14.01,2013-05-06 17:34:00,
2013-05-06 13:39:00,68.6,52.8,29.88,ESE,105,0.0,7.0,57,0.00,,---,0.00,359.00,VWS V14.01,2013-05-06 17:39:00,
2013-05-06 13:44:00,68.7,53.3,29.88,ENE,57,0.0,7.0,58,0.00,,---,0.00,265.00,VWS V14.01,2013-05-06 17:44:00,
2013-05-06 13:49:00,68.6,53.2,29.88,East,86,2.0,7.0,58,0.00,,---,0.00,392.00,VWS V14.01,2013-05-06 17:49:00,
2013-05-06 13:54:00,68.5,53.2,29.88,SE,141,6.0,8.0,58,0.00,,---,0.00,325.00,VWS V14.01,2013-05-06 17:54:00,
2013-05-06 13:59:00,68.3,53.0,29.89,ESE,105,2.0,11.0,58,0.00,,---,0.00,271.00,VWS V14.01,2013-05-06 17:59:00,
2013-05-06 14:00:00,68.2,53.3,29.88,East,98,2.0,11.0,59,0.00,,---,0.00,255.00,VWS V14.01,2013-05-06 18:00:00,
2013-05-06 14:04:00,68.1,53.2,29.88,East,90,3.0,4.0,59,0.00,,---,0.00,229.00,VWS V14.01,2013-05-06 18:04:00,
2013-05-06 14:09:00,67.9,53.5,29.89,East,88,3.0,9.0,60,0.00,,---,0.00,227.00,VWS V14.01,2013-05-06 18:09:00,
2013-05-06 14:14:00,67.6,53.7,29.89,ENE,74,1.0,9.0,61,0.00,,---,0.00,195.00,VWS V14.01,2013-05-06 18:14:00,
2013-05-06 14:19:00,67.5,53.6,29.88,East,94,0.0,9.0,61,0.00,,---,0.00,172.00,VWS V14.01,2013-05-06 18:19:00,
2013-05-06 14:24:00,67.4,53.5,29.89,ESE,109,0.0,9.0,61,0.00,,---,0.00,195.00,VWS V14.01,2013-05-06 18:24:00,
2013-05-06 14:29:00,67.4,54.4,29.89,East,96,0.0,9.0,63,0.00,,---,0.00,262.00,VWS V14.01,2013-05-06 18:29:00,
2013-05-06 14:30:00,67.3,53.8,29.89,ENE,57,4.0,9.0,62,0.00,,---,0.00,285.00,VWS V14.01,2013-05-06 18:30:00,
2013-05-06 14:34:00,67.2,54.6,29.89,East,92,4.0,6.0,64,0.00,,---,0.00,380.00,VWS V14.01,2013-05-06 18:34:00,
2013-05-06 14:39:00,67.3,55.6,29.89,East,83,0.0,6.0,66,0.00,,---,0.00,394.00,VWS V14.01,2013-05-06 18:39:00,
2013-05-06 14:44:00,67.4,54.8,29.89,ESE,119,0.0,6.0,64,0.00,,---,0.00,309.00,VWS V14.01,2013-05-06 18:44:00,
2013-05-06 14:49:00,67.7,56.0,29.88,SSE,159,2.0,6.0,66,0.00,,---,0.00,364.00,VWS V14.01,2013-05-06 18:49:00,
2013-05-06 14:54:00,68.0,54.5,29.88,ESE,115,3.0,6.0,62,0.00,,---,0.00,341.00,VWS V14.01,2013-05-06 18:54:00,
2013-05-06 14:59:00,68.1,54.2,29.88,NE,55,1.0,6.0,61,0.00,,---,0.00,346.00,VWS V14.01,2013-05-06 18:59:00,
2013-05-06 15:00:00,68.1,53.2,29.88,NE,55,0.0,6.0,59,0.00,,---,0.00,345.00,VWS V14.01,2013-05-06 19:00:00,
2013-05-06 15:04:00,68.2,53.8,29.88,NE,55,0.0,2.0,60,0.00,,---,0.00,417.00,VWS V14.01,2013-05-06 19:04:00,
2013-05-06 15:09:00,68.4,54.0,29.88,NE,55,1.0,2.0,60,0.00,,---,0.00,457.00,VWS V14.01,2013-05-06 19:09:00,
2013-05-06 15:14:00,68.5,54.1,29.87,ESE,108,0.0,2.0,60,0.00,,---,0.00,295.00,VWS V14.01,2013-05-06 19:14:00,
2013-05-06 15:19:00,68.8,54.4,29.87,ENE,78,1.0,6.0,60,0.00,,---,0.00,285.00,VWS V14.01,2013-05-06 19:19:00,
2013-05-06 15:24:00,68.9,54.5,29.87,ENE,76,3.0,6.0,60,0.00,,---,0.00,318.00,VWS V14.01,2013-05-06 19:24:00,
2013-05-06 15:29:00,68.8,54.4,29.87,NE,48,1.0,6.0,60,0.00,,---,0.00,301.00,VWS V14.01,2013-05-06 19:29:00,
2013-05-06 15:30:00,68.8,54.4,29.87,ENE,61,1.0,6.0,60,0.00,,---,0.00,290.00,VWS V14.01,2013-05-06 19:30:00,
2013-05-06 15:34:00,68.7,54.3,29.86,East,82,7.0,7.0,60,0.00,,---,0.00,260.00,VWS V14.01,2013-05-06 19:34:00,
2013-05-06 15:39:00,68.5,54.1,29.87,East,96,1.0,7.0,60,0.00,,---,0.00,230.00,VWS V14.01,2013-05-06 19:39:00,
2013-05-06 15:44:00,68.5,54.5,29.87,ENE,75,4.0,7.0,61,0.00,,---,0.00,178.00,VWS V14.01,2013-05-06 19:44:00,
2013-05-06 15:49:00,68.2,53.8,29.87,East,91,0.0,10.0,60,0.00,,---,0.00,123.00,VWS V14.01,2013-05-06 19:49:00,
2013-05-06 15:54:00,67.8,53.9,29.86,East,86,3.0,10.0,61,0.00,,---,0.00,153.00,VWS V14.01,2013-05-06 19:54:00,
2013-05-06 15:59:00,67.6,54.1,29.87,ENE,76,1.0,10.0,62,0.00,,---,0.00,209.00,VWS V14.01,2013-05-06 19:59:00,
2013-05-06 16:00:00,67.5,54.5,29.87,ENE,76,0.0,10.0,63,0.00,,---,0.00,220.00,VWS V14.01,2013-05-06 20:00:00,
2013-05-06 16:04:00,67.4,54.8,29.87,East,82,3.0,7.0,64,0.00,,---,0.00,244.00,VWS V14.01,2013-05-06 20:04:00,
2013-05-06 16:09:00,67.1,55.8,29.87,ENE,78,1.0,7.0,67,0.00,,---,0.00,227.00,VWS V14.01,2013-05-06 20:09:00,
2013-05-06 16:14:00,66.7,55.4,29.87,East,89,2.0,7.0,67,0.00,,---,0.00,230.00,VWS V14.01,2013-05-06 20:14:00,
2013-05-06 16:19:00,66.4,55.9,29.87,ENE,77,1.0,7.0,69,0.00,,---,0.00,253.00,VWS V14.01,2013-05-06 20:19:00,
2013-05-06 16:24:00,66.1,56.0,29.87,ENE,65,4.0,11.0,70,0.00,,---,0.00,234.00,VWS V14.01,2013-05-06 20:24:00,
2013-05-06 16:29:00,65.8,56.2,29.87,ENE,76,2.0,11.0,71,0.00,,---,0.00,213.00,VWS V14.01,2013-05-06 20:29:00,
2013-05-06 16:30:00,65.8,56.2,29.87,ENE,71,5.0,11.0,71,0.00,,---,0.00,209.00,VWS V14.01,2013-05-06 20:30:00,
2013-05-06 16:34:00,65.7,56.4,29.87,ENE,71,0.0,6.0,72,0.00,,---,0.00,202.00,VWS V14.01,2013-05-06 20:34:00,
2013-05-06 16:39:00,65.5,56.2,29.87,ENE,69,0.0,6.0,72,0.00,,---,0.00,216.00,VWS V14.01,2013-05-06 20:39:00,
2013-05-06 16:44:00,65.4,56.2,29.87,East,86,0.0,6.0,72,0.00,,---,0.00,223.00,VWS V14.01,2013-05-06 20:44:00,
2013-05-06 16:49:00,65.4,56.9,29.87,East,85,2.0,6.0,74,0.00,,---,0.00,167.00,VWS V14.01,2013-05-06 20:49:00,
2013-05-06 16:54:00,65.3,56.4,29.87,East,98,2.0,6.0,73,0.00,,---,0.00,127.00,VWS V14.01,2013-05-06 20:54:00,
2013-05-06 16:59:00,65.2,57.1,29.87,East,83,1.0,6.0,75,0.00,,---,0.00,128.00,VWS V14.01,2013-05-06 20:59:00,
2013-05-06 17:00:00,65.1,56.6,29.87,ENE,72,2.0,6.0,74,0.00,,---,0.00,120.00,VWS V14.01,2013-05-06 21:00:00,
2013-05-06 17:04:00,64.8,56.7,29.87,East,82,4.0,4.0,75,0.00,,---,0.00,95.00,VWS V14.01,2013-05-06 21:04:00,
2013-05-06 17:09:00,64.4,57.0,29.88,East,98,1.0,4.0,77,0.00,,---,0.00,111.00,VWS V14.01,2013-05-06 21:09:00,
2013-05-06 17:14:00,64.2,57.2,29.88,East,98,0.0,4.0,78,0.00,,---,0.00,139.00,VWS V14.01,2013-05-06 21:14:00,
2013-05-06 17:20:00,64.1,57.5,29.88,East,98,0.0,4.0,79,0.00,,---,0.00,141.00,VWS V14.01,2013-05-06 21:20:00,
2013-05-06 17:25:00,64.1,57.8,29.88,East,98,0.0,4.0,80,0.00,,---,0.00,163.00,VWS V14.01,2013-05-06 21:25:00,
2013-05-06 17:30:00,64.1,58.2,29.88,East,98,1.0,4.0,81,0.00,,---,0.00,197.00,VWS V14.01,2013-05-06 21:30:00,
2013-05-06 17:35:00,64.0,58.1,29.88,East,97,1.0,3.0,81,0.00,,---,0.00,232.00,VWS V14.01,2013-05-06 21:35:00,
2013-05-06 17:40:00,64.1,58.2,29.88,East,97,0.0,3.0,81,0.00,,---,0.00,272.00,VWS V14.01,2013-05-06 21:40:00,
2013-05-06 17:45:00,64.1,58.2,29.88,East,97,0.0,3.0,81,0.00,,---,0.00,221.00,VWS V14.01,2013-05-06 21:45:00,
2013-05-06 17:50:00,64.1,57.5,29.88,East,83,4.0,5.0,79,0.00,,---,0.00,207.00,VWS V14.01,2013-05-06 21:50:00,
2013-05-06 17:55:00,64.1,57.5,29.88,East,88,0.0,5.0,79,0.00,,---,0.00,151.00,VWS V14.01,2013-05-06 21:55:00,
2013-05-06 18:00:00,64.2,57.9,29.88,East,88,0.0,5.0,80,0.00,,---,0.00,105.00,VWS V14.01,2013-05-06 22:00:00,
2013-05-06 18:05:00,64.2,57.6,29.88,East,88,2.0,2.0,79,0.00,,---,0.00,114.00,VWS V14.01,2013-05-06 22:05:00,
2013-05-06 18:10:00,64.2,57.9,29.88,East,88,0.0,2.0,80,0.00,,---,0.00,121.00,VWS V14.01,2013-05-06 22:10:00,
2013-05-06 18:15:00,64.2,57.9,29.88,East,88,0.0,2.0,80,0.00,,---,0.00,127.00,VWS V14.01,2013-05-06 22:15:00,
2013-05-06 18:20:00,64.3,58.3,29.88,East,88,0.0,2.0,81,0.00,,---,0.00,114.00,VWS V14.01,2013-05-06 22:20:00,
2013-05-06 18:25:00,64.2,58.3,29.88,SE,144,1.0,3.0,81,0.00,,---,0.00,107.00,VWS V14.01,2013-05-06 22:25:00,
2013-05-06 18:30:00,64.0,58.1,29.88,SSE,155,3.0,3.0,81,0.00,,---,0.00,93.00,VWS V14.01,2013-05-06 22:30:00,
2013-05-06 18:35:00,63.8,57.9,29.88,SSE,155,0.0,2.0,81,0.01,,---,0.01,84.00,VWS V14.01,2013-05-06 22:35:00,
2013-05-06 18:40:00,63.7,58.1,29.88,South,180,7.0,7.0,82,0.01,,---,0.01,95.00,VWS V14.01,2013-05-06 22:40:00,
2013-05-06 18:45:00,63.5,58.2,29.88,SSE,161,0.0,7.0,83,0.01,,---,0.01,93.00,VWS V14.01,2013-05-06 22:45:00,
2013-05-06 18:50:00,63.3,58.4,29.89,SSE,163,2.0,7.0,84,0.01,,---,0.01,67.00,VWS V14.01,2013-05-06 22:50:00,
2013-05-06 18:55:00,63.0,58.1,29.89,SE,129,0.0,7.0,84,0.01,,---,0.01,56.00,VWS V14.01,2013-05-06 22:55:00,
2013-05-06 19:00:00,62.7,57.8,29.89,SE,129,0.0,7.0,84,0.01,,---,0.01,62.00,VWS V14.01,2013-05-06 23:00:00,
2013-05-06 19:05:00,62.4,57.8,29.89,ESE,111,0.0,5.0,85,0.01,,---,0.01,54.00,VWS V14.01,2013-05-06 23:05:00,
2013-05-06 19:10:00,62.1,57.5,29.89,SE,142,0.0,5.0,85,0.01,,---,0.01,37.00,VWS V14.01,2013-05-06 23:10:00,
2013-05-06 19:15:00,62.0,57.5,29.89,SE,140,0.0,5.0,85,0.01,,---,0.01,30.00,VWS V14.01,2013-05-06 23:15:00,
2013-05-06 19:20:00,61.8,57.6,29.89,SE,140,0.0,5.0,86,0.01,,---,0.01,32.00,VWS V14.01,2013-05-06 23:20:00,
2013-05-06 19:25:00,61.7,57.5,29.89,SE,140,0.0,5.0,86,0.01,,---,0.01,39.00,VWS V14.01,2013-05-06 23:25:00,
2013-05-06 19:30:00,61.6,57.4,29.88,SE,140,0.0,5.0,86,0.01,,---,0.01,37.00,VWS V14.01,2013-05-06 23:30:00,
2013-05-06 19:35:00,61.5,57.6,29.89,SE,140,0.0,0.0,87,0.00,,---,0.01,35.00,VWS V14.01,2013-05-06 23:35:00,
2013-05-06 19:40:00,61.4,57.5,29.89,SE,140,0.0,1.0,87,0.00,,---,0.01,39.00,VWS V14.01,2013-05-06 23:40:00,
2013-05-06 19:45:00,61.2,57.3,29.89,SE,140,0.0,1.0,87,0.00,,---,0.01,33.00,VWS V14.01,2013-05-06 23:45:00,
2013-05-06 19:50:00,61.2,57.3,29.89,SE,140,0.0,1.0,87,0.00,,---,0.01,21.00,VWS V14.01,2013-05-06 23:50:00,
2013-05-06 19:55:00,61.1,57.2,29.89,SE,140,0.0,1.0,87,0.00,,---,0.01,18.00,VWS V14.01,2013-05-06 23:55:00,
2013-05-06 20:00:00,61.0,57.1,29.89,SE,140,0.0,2.0,87,0.00,,---,0.01,16.00,VWS V14.01,2013-05-07 00:00:00,
2013-05-06 20:05:00,60.9,57.0,29.89,SE,140,0.0,1.0,87,0.00,,---,0.01,14.00,VWS V14.01,2013-05-07 00:05:00,
2013-05-06 20:10:00,60.7,56.8,29.89,SE,140,0.0,1.0,87,0.00,,---,0.01,11.00,VWS V14.01,2013-05-07 00:10:00,
2013-05-06 20:15:00,60.6,56.7,29.89,SE,140,0.0,1.0,87,0.00,,---,0.01,9.00,VWS V14.01,2013-05-07 00:15:00,
2013-05-06 20:20:00,60.5,56.6,29.89,SE,140,0.0,1.0,87,0.00,,---,0.01,7.00,VWS V14.01,2013-05-07 00:20:00,
2013-05-06 20:25:00,60.4,56.5,29.90,SE,140,0.0,1.0,87,0.00,,---,0.01,5.00,VWS V14.01,2013-05-07 00:25:00,
2013-05-06 20:30:00,60.2,56.3,29.90,SE,140,0.0,0.0,87,0.00,,---,0.01,0.00,VWS V14.01,2013-05-07 00:30:00,
2013-05-06 20:35:00,60.0,56.4,29.90,SE,140,0.0,1.0,88,0.00,,---,0.01,0.00,VWS V14.01,2013-05-07 00:35:00,
2013-05-06 20:40:00,59.9,56.3,29.90,SE,140,0.0,1.0,88,0.00,,---,0.01,0.00,VWS V14.01,2013-05-07 00:40:00,
2013-05-06 20:45:00,59.8,56.2,29.90,SE,140,0.0,1.0,88,0.00,,---,0.01,0.00,VWS V14.01,2013-05-07 00:45:00,
2013-05-06 20:50:00,59.6,56.0,29.90,SE,140,0.0,2.0,88,0.00,,---,0.01,0.00,VWS V14.01,2013-05-07 00:50:00,
2013-05-06 20:56:00,59.5,56.0,29.90,ENE,71,0.0,5.0,88,0.00,,---,0.01,0.00,VWS V14.01,2013-05-07 00:56:00,
2013-05-06 21:00:00,59.3,56.1,29.90,East,82,2.0,5.0,89,0.00,,---,0.01,0.00,VWS V14.01,2013-05-07 01:00:00,
2013-05-06 21:01:00,59.3,56.1,29.90,East,82,0.0,2.0,89,0.00,,---,0.01,0.00,VWS V14.01,2013-05-07 01:01:00,
2013-05-06 21:06:00,59.2,56.0,29.90,ESE,107,0.0,3.0,89,0.00,,---,0.01,0.00,VWS V14.01,2013-05-07 01:06:00,
2013-05-06 21:11:00,59.1,55.9,29.90,ESE,107,1.0,3.0,89,0.00,,---,0.01,0.00,VWS V14.01,2013-05-07 01:11:00,
2013-05-06 21:16:00,59.1,55.9,29.90,East,99,2.0,3.0,89,0.00,,---,0.01,0.00,VWS V14.01,2013-05-07 01:16:00,
2013-05-06 21:21:00,59.1,55.9,29.90,East,100,1.0,3.0,89,0.00,,---,0.01,0.00,VWS V14.01,2013-05-07 01:21:00,
2013-05-06 21:26:00,59.0,55.8,29.90,East,99,0.0,3.0,89,0.00,,---,0.01,0.00,VWS V14.01,2013-05-07 01:26:00,
2013-05-06 21:30:00,59.0,55.8,29.90,East,99,0.0,3.0,89,0.00,,---,0.01,0.00,VWS V14.01,2013-05-07 01:30:00,
2013-05-06 21:31:00,59.0,55.8,29.90,East,99,0.0,0.0,89,0.00,,---,0.01,0.00,VWS V14.01,2013-05-07 01:31:00,
2013-05-06 21:36:00,58.9,55.7,29.90,East,99,1.0,2.0,89,0.00,,---,0.01,0.00,VWS V14.01,2013-05-07 01:36:00,
2013-05-06 21:41:00,58.7,55.5,29.90,ENE,62,0.0,4.0,89,0.00,,---,0.01,0.00,VWS V14.01,2013-05-07 01:41:00,
2013-05-06 21:46:00,58.6,55.4,29.90,ENE,61,0.0,4.0,89,0.00,,---,0.01,0.00,VWS V14.01,2013-05-07 01:46:00,
2013-05-06 21:51:00,58.5,55.3,29.90,ENE,61,0.0,4.0,89,0.00,,---,0.01,0.00,VWS V14.01,2013-05-07 01:51:00,
2013-05-06 21:56:00,58.4,55.2,29.90,ENE,61,0.0,4.0,89,0.00,,---,0.01,0.00,VWS V14.01,2013-05-07 01:56:00,
2013-05-06 22:00:00,58.3,55.1,29.90,East,92,0.0,4.0,89,0.00,,---,0.01,0.00,VWS V14.01,2013-05-07 02:00:00,
2013-05-06 22:01:00,58.3,55.1,29.90,East,92,0.0,0.0,89,0.00,,---,0.01,0.00,VWS V14.01,2013-05-07 02:01:00,
2013-05-06 22:06:00,58.2,55.3,29.90,East,92,0.0,2.0,90,0.00,,---,0.01,0.00,VWS V14.01,2013-05-07 02:06:00,
2013-05-06 22:11:00,58.1,54.9,29.90,East,92,0.0,2.0,89,0.00,,---,0.01,0.00,VWS V14.01,2013-05-07 02:11:00,
2013-05-06 22:16:00,58.0,55.1,29.90,East,92,0.0,2.0,90,0.00,,---,0.01,0.00,VWS V14.01,2013-05-07 02:16:00,
2013-05-06 22:21:00,57.9,55.0,29.90,East,92,0.0,2.0,90,0.00,,---,0.01,0.00,VWS V14.01,2013-05-07 02:21:00,
2013-05-06 22:26:00,57.8,54.9,29.90,East,92,0.0,2.0,90,0.00,,---,0.01,0.00,VWS V14.01,2013-05-07 02:26:00,
2013-05-06 22:30:00,57.7,54.8,29.90,East,92,0.0,2.0,90,0.00,,---,0.01,0.00,VWS V14.01,2013-05-07 02:30:00,
2013-05-06 22:31:00,57.7,54.8,29.91,East,92,0.0,0.0,90,0.00,,---,0.01,0.00,VWS V14.01,2013-05-07 02:31:00,
2013-05-06 22:36:00,57.6,54.7,29.91,East,92,0.0,1.0,90,0.00,,---,0.01,0.00,VWS V14.01,2013-05-07 02:36:00,
2013-05-06 22:41:00,57.5,54.6,29.91,East,92,0.0,1.0,90,0.00,,---,0.01,0.00,VWS V14.01,2013-05-07 02:41:00,
2013-05-06 22:46:00,57.4,54.5,29.91,East,92,0.0,1.0,90,0.00,,---,0.01,0.00,VWS V14.01,2013-05-07 02:46:00,
2013-05-06 22:51:00,57.3,54.4,29.91,East,92,0.0,1.0,90,0.00,,---,0.01,0.00,VWS V14.01,2013-05-07 02:51:00,
2013-05-06 22:56:00,57.3,54.4,29.91,East,92,0.0,1.0,90,0.00,,---,0.01,0.00,VWS V14.01,2013-05-07 02:56:00,
2013-05-06 23:00:00,57.2,54.3,29.91,East,92,0.0,1.0,90,0.00,,---,0.01,0.00,VWS V14.01,2013-05-07 03:00:00,
2013-05-06 23:01:00,57.2,54.3,29.90,East,92,0.0,0.0,90,0.00,,---,0.01,0.00,VWS V14.01,2013-05-07 03:01:00,
2013-05-06 23:06:00,57.2,54.3,29.90,East,92,0.0,0.0,90,0.00,,---,0.01,0.00,VWS V14.01,2013-05-07 03:06:00,
2013-05-06 23:11:00,57.2,54.3,29.90,East,92,1.0,2.0,90,0.00,,---,0.01,0.00,VWS V14.01,2013-05-07 03:11:00,
2013-05-06 23:16:00,57.2,54.3,29.90,East,89,0.0,2.0,90,0.00,,---,0.01,0.00,VWS V14.01,2013-05-07 03:16:00,
2013-05-06 23:21:00,57.2,54.3,29.90,East,89,0.0,3.0,90,0.00,,---,0.01,0.00,VWS V14.01,2013-05-07 03:21:00,
2013-05-06 23:26:00,57.3,54.4,29.90,East,86,2.0,4.0,90,0.00,,---,0.01,0.00,VWS V14.01,2013-05-07 03:26:00,
2013-05-06 23:30:00,57.4,54.5,29.90,East,86,1.0,4.0,90,0.00,,---,0.01,0.00,VWS V14.01,2013-05-07 03:30:00,
2013-05-06 23:31:00,57.4,54.5,29.90,East,86,0.0,2.0,90,0.00,,---,0.01,0.00,VWS V14.01,2013-05-07 03:31:00,
2013-05-06 23:36:00,57.5,54.3,29.90,ESE,112,0.0,3.0,89,0.00,,---,0.01,0.00,VWS V14.01,2013-05-07 03:36:00,
2013-05-06 23:41:00,57.6,54.4,29.90,East,95,0.0,7.0,89,0.00,,---,0.01,0.00,VWS V14.01,2013-05-07 03:41:00,
2013-05-06 23:46:00,57.8,54.3,29.89,East,79,2.0,7.0,88,0.00,,---,0.01,0.00,VWS V14.01,2013-05-07 03:46:00,
2013-05-06 23:51:00,58.0,54.5,29.89,ENE,76,4.0,7.0,88,0.00,,---,0.01,0.00,VWS V14.01,2013-05-07 03:51:00,
2013-05-06 23:56:00,58.1,54.6,29.89,East,101,1.0,7.0,88,0.00,,---,0.01,0.00,VWS V14.01,2013-05-07 03:56:00,